{"data":{"norad_id":49139,"epoch":"2026-05-25T04:29:20.666400Z","epoch_age_seconds":59058,"freshness":"FRESH","line1":"1 49139U 21082K   26145.18704475  .00000568  00000+0  55356-4 0  9999","line2":"2 49139  70.0004  61.5682 0002710 263.7373  96.3477 14.98327698258422","mean_motion":14.98327698,"eccentricity":0.000271,"inclination_deg":70.0004,"raan_deg":61.5682,"arg_perigee_deg":263.7373,"mean_anomaly_deg":96.3477,"bstar":5.5356e-5,"rev_number":25842,"period_min":96.107146782519,"perigee_km":570.17950549601,"apogee_km":573.94651390127,"semimajor_km":6950.2000096986,"source":"CELESTRAK","updated_at":"2026-05-25T13:38:16.766107Z"}}